Dallas/Ft Worth, TX

2:42 PM CST on February 19, 2018 (GMT -0600)
Dallas-Fort Worth International

Weather History for KDFW - March, 2012

Change the Weather History Date:

Tuesday, March 6, 2012

  Actual Average Record
Temperature  
Mean Temperature 63 °F 55 °F  
Max Temperature 72 °F 65 °F 90 °F (1929)
Min Temperature 53 °F 45 °F 20 °F (1989)
Degree Days  
Heating Degree Days 2 11  
Month to date heating degree days 36 69  
Since 1 July heating degree days 1697 2001  
Cooling Degree Days 0 1  
Month to date cooling degree days 0 4  
Year to date cooling degree days 8 11  
Growing Degree Days 12 (Base 50)    
Moisture  
Dew Point 50 °F    
Average Humidity 66    
Maximum Humidity 83    
Minimum Humidity 49    
Precipitation  
Precipitation 0.00 in 0.13 in 0.93 in (2008)
Month to date precipitation 0.00 0.68  
Year to date precipitation 8.06 5.47  
Snow  
Snow 0.00 in 0.10 in 1.10 in (2008)
Month to date snowfall 0.0 0.1  
Since 1 July snowfall 0.3 1.5  
Snow Depth 0.00 in    
Sea Level Pressure  
Sea Level Pressure 30.05 in    
Wind  
Wind Speed 21 mph (South)    
Max Wind Speed 36 mph    
Max Gust Speed 43 mph    
Visibility 10 miles    
Events      
T = Trace of Precipitation, MM = Missing Value Source: NWS Daily Summary

Daily Weather History Graph

Daily Weather History Graph

Search for Another Location

Airport or City:

Trip Planner

Search our weather history database for the weather conditions in past years. The results will help you decide how hot, cold, wet, or windy it might be!

Date:

Astronomy

Mar. 06, 2012 Rise Set
Actual Time 6:49 AM CST 6:29 PM CST
Civil Twilight 6:24 AM CST 6:54 PM CST
Nautical Twilight 5:56 AM CST 7:22 PM CST
Astronomical Twilight 5:27 AM CST 7:51 PM CST
Moon 5:00 PM CST (3/6) 5:21 AM CST (3/6)
Length of Visible Light 12h 29m
Length of Day
11h 40m
Waxing Gibbous, 96% of the Moon is Illuminated
Mar 6
Waxing Gibbous
Mar 8
Full
Mar 14
Last Quarter
Mar 22
New
Mar 30
First Quarter

Hourly Weather History & Observations

Time (CST) Temp. Dew Point Humidity Pressure Visibility Wind Dir Wind Speed Gust Speed Precip Events Conditions
12:53 AM 60.1 °F 41.0 °F 49% 30.15 in 10.0 mi South 16.1 mph - N/A   Mostly Cloudy
1:53 AM 59.0 °F 41.0 °F 51% 30.15 in 10.0 mi South 16.1 mph - N/A   Mostly Cloudy
2:53 AM 57.0 °F 46.9 °F 69% 30.12 in 10.0 mi South 18.4 mph 26.5 mph N/A   Mostly Cloudy
3:53 AM 55.0 °F 48.0 °F 77% 30.12 in 10.0 mi South 15.0 mph - N/A   Mostly Cloudy
4:53 AM 54.0 °F 48.9 °F 83% 30.11 in 10.0 mi South 12.7 mph - N/A   Mostly Cloudy
5:53 AM 53.6 °F 48.2 °F 82% 30.13 in 10.0 mi South 13.8 mph - N/A   Mostly Cloudy
6:53 AM 53.1 °F 48.9 °F 86% 30.12 in 10.0 mi South 13.8 mph - N/A   Mostly Cloudy
7:53 AM 55.0 °F 50.0 °F 83% 30.14 in 10.0 mi South 16.1 mph - N/A   Mostly Cloudy
8:53 AM 59.0 °F 51.1 °F 75% 30.13 in 10.0 mi South 25.3 mph 32.2 mph N/A   Mostly Cloudy
9:53 AM 62.1 °F 51.1 °F 67% 30.10 in 10.0 mi South 23.0 mph 32.2 mph N/A   Mostly Cloudy
10:53 AM 66.0 °F 52.0 °F 60% 30.09 in 10.0 mi South 25.3 mph 38.0 mph N/A   Mostly Cloudy
11:53 AM 69.1 °F 52.0 °F 54% 30.07 in 10.0 mi South 33.4 mph 39.1 mph N/A   Overcast
12:53 PM 69.1 °F 52.0 °F 54% 30.05 in 10.0 mi South 28.8 mph 40.3 mph N/A   Overcast
1:53 PM 69.1 °F 53.1 °F 57% 30.01 in 10.0 mi South 26.5 mph 36.8 mph N/A   Overcast
2:53 PM 71.1 °F 51.1 °F 49% 29.99 in 10.0 mi South 25.3 mph 33.4 mph N/A   Mostly Cloudy
3:53 PM 70.0 °F 51.1 °F 51% 29.98 in 10.0 mi South 23.0 mph 39.1 mph N/A   Mostly Cloudy
4:53 PM 69.8 °F 50.0 °F 49% 29.97 in 10.0 mi South 20.7 mph 33.4 mph N/A   Mostly Cloudy
5:53 PM 70.0 °F 50.0 °F 49% 29.95 in 10.0 mi South 20.7 mph 35.7 mph N/A   Mostly Cloudy
6:53 PM 68.0 °F 50.0 °F 52% 29.94 in 10.0 mi SSE 19.6 mph 29.9 mph N/A   Overcast
7:53 PM 68.0 °F 50.0 °F 52% 29.94 in 10.0 mi South 21.9 mph 32.2 mph N/A   Mostly Cloudy
8:53 PM 66.9 °F 50.0 °F 54% 29.95 in 10.0 mi South 21.9 mph 28.8 mph N/A   Overcast
9:53 PM 66.0 °F 51.1 °F 59% 29.96 in 10.0 mi South 21.9 mph 32.2 mph N/A   Mostly Cloudy
10:53 PM 64.9 °F 52.0 °F 63% 29.97 in 10.0 mi South 21.9 mph 31.1 mph N/A   Mostly Cloudy
11:53 PM 64.9 °F 54.0 °F 68% 29.96 in 10.0 mi South 19.6 mph 31.1 mph N/A   Overcast